Flag for Central African Republic Weather past 2 weeks in Bimbo, Central African Republic

Now
73 °F

Thunderstorms. Passing clouds.


Feels Like: 68 °F
Forecast: 73 / 87 °F
Wind: 3 mph from North

Location: Bangui Airport

Current Time: Oct 25, 2014 at 8:55:30 PM

Latest Report: Oct 25, 2014 at 8:00 PM


Visibility: N/A

Pressure: 29.92 "Hg

Humidity: 100%

Dew point: 73 °F

Location of BimboLocation

Historic Weather in Bimbo — Graph

°F

Bimbo temperature yesterday

Maximum temperature yesterday: 91 °F (at 2:00 PM)
Minimum temperature yesterday: 72 °F (at 1:00 AM)
Average temperature yesterday: 79 °F

Past Weeks' High & Low Weather Summary

 TemperatureHumidityPressure
High95 °F (Oct 17, 1:00 PM)100% (Oct 11, 1:00 AM)30.01 "Hg (Oct 11, 1:00 AM)
Low68 °F (Oct 12, 4:00 AM)41% (Oct 17, 1:00 PM)29.74 "Hg (Oct 17, 3:00 PM)
Average78 °F84%29.88 "Hg
* Reported Oct 10 6:00 PM — Oct 25 6:00 PM, Bimbo, Weather by CustomWeather, © 2014

Note: Actual official high and low records may vary slightly from our data, if they occured in-between our weather recording intervals... More about our weather records

Advertising

Bimbo weather history for previous 24 hours

 ConditionsComfort  
Time TempWeatherWind HumidityBarometerVisibility
6:00 PM
Oct 25
73 °FThunderstorms. Passing clouds.1 mph94%29.86 "HgN/A
5:00 PM75 °FPartly sunny.2 mph94%29.83 "HgN/A
4:00 PM75 °FThunderstorms. Partly sunny.1 mph89%29.80 "HgN/A
3:00 PM75 °FThunderstorms. Partly sunny.7 mph94%29.77 "HgN/A
2:00 PM75 °FThunderstorms. Broken clouds.1 mph89%29.80 "HgN/A
1:00 PM77 °FThunderstorms. More clouds than sun.12 mph83%29.86 "Hg4 mi
12:00 PM88 °FThunderstorms. Partly sunny.8 mph66%29.83 "HgN/A
10:00 AM86 °FBroken clouds.5 mph70%29.92 "HgN/A
9:00 AM81 °FBroken clouds.5 mph84%29.92 "HgN/A
8:00 AM73 °FThunderstorms. Partly sunny.2 mph100%29.92 "Hg5 mi
7:00 AM73 °FThunderstorms. Partly sunny.3 mph100%29.92 "Hg5 mi
6:00 AM72 °FPartly sunny.3 mph100%29.92 "Hg5 mi
5:00 AM72 °FThunderstorms. Passing clouds.No wind100%29.86 "HgN/A
4:00 AM72 °FClear.2 mph100%29.86 "Hg10 mi
3:00 AM72 °FClear.No wind100%29.86 "Hg10 mi
2:00 AM73 °FClear.No wind94%29.86 "Hg10 mi
1:00 AM73 °FClear.No wind94%29.89 "Hg10 mi
12:00 AM73 °FThunderstorms. Passing clouds.3 mph94%29.89 "Hg5 mi
11:00 PM
Oct 24
73 °FThunderstorms. Passing clouds.No wind94%29.89 "Hg5 mi
10:00 PM75 °FThunderstorms. Passing clouds.3 mph89%29.89 "Hg5 mi
9:00 PM73 °FThunderstorms. Passing clouds.5 mph100%29.89 "Hg5 mi
8:00 PM75 °FThunderstorms. Passing clouds.2 mph94%29.86 "Hg5 mi
Weather by CustomWeather, © 2014

See weather overviewHow to use our weather pages